This is the latest recevied weather packets stored in our database for station/object KC2TER. If no packets are shown the sender has not sent any weather packets the latest 10 day(s).
| Time | Temp. | Humidity | Pressure | Rain* | Wind** | Luminosity | Snow |
|---|---|---|---|---|---|---|---|
| 1777834615 | 13.89° C | 39% | 1012.1 hPa | 0 mm | - | 713 W/m² | - |
| 1777834311 | 13.89° C | 40% | 1011.9 hPa | 0 mm | - | 766 W/m² | - |
| 1777834006 | 13.33° C | 42% | 1011.8 hPa | 0 mm | - | 236 W/m² | - |
| 1777833703 | 13.89° C | 40% | 1012 hPa | 0 mm | - | 195 W/m² | - |
| 1777833399 | 12.78° C | 41% | 1011.8 hPa | 0 mm | - | 849 W/m² | - |
| 1777833097 | 13.33° C | 41% | 1011.9 hPa | 0 mm | - | 223 W/m² | - |
| 1777832794 | 13.89° C | 42% | 1011.8 hPa | 0 mm | - | 206 W/m² | - |
| 1777832492 | 13.33° C | 40% | 1011.9 hPa | 0 mm | - | 871 W/m² | - |
| 1777832189 | 13.89° C | 40% | 1012.1 hPa | 0 mm | - | 316 W/m² | - |
| 1777831886 | 12.78° C | 43% | 1012 hPa | 0 mm | - | 918 W/m² | - |
| 1777831583 | 12.78° C | 42% | 1012.1 hPa | 0 mm | - | 354 W/m² | - |
| 1777831280 | 12.78° C | 42% | 1011.9 hPa | 0 mm | - | 346 W/m² | - |
| 1777830977 | 13.33° C | 41% | 1011.9 hPa | 0 mm | - | 304 W/m² | - |
| 1777830674 | 13.33° C | 40% | 1011.9 hPa | 0 mm | - | 921 W/m² | - |
| 1777830371 | 13.33° C | 42% | 1012.2 hPa | 0 mm | - | 923 W/m² | - |
| 1777830069 | 12.78° C | 41% | 1012.1 hPa | 0 mm | - | 370 W/m² | - |
| 1777829763 | 12.78° C | 41% | 1012.1 hPa | 0 mm | - | 533 W/m² | - |
| 1777829460 | 12.22° C | 43% | 1012 hPa | 0 mm | - | 629 W/m² | - |
| 1777829156 | 12.22° C | 43% | 1011.9 hPa | 0 mm | - | 841 W/m² | - |
| 1777828853 | 12.22° C | 44% | 1012.2 hPa | 0 mm | - | 312 W/m² | - |
| 1777828550 | 11.67° C | 44% | 1011.9 hPa | 0 mm | - | 416 W/m² | - |
| 1777828247 | 12.22° C | 44% | 1012.2 hPa | 0 mm | - | 254 W/m² | - |
| 1777827944 | 12.22° C | 43% | 1012.1 hPa | 0 mm | - | 257 W/m² | - |
| 1777827641 | 12.78° C | 44% | 1012.2 hPa | 0 mm | - | 956 W/m² | - |
| 1777827338 | 11.67° C | 45% | 1012.2 hPa | 0 mm | - | 845 W/m² | - |
* Rain latest hour (hover to see other rain measurements)
** Current wind speed in m/s (hover to see current wind gust speed)